ATLAS 5 CENTAUR DEB, 46601

Orbit data source: Space-Track

ATLAS 5 CENTAUR DEB, 46601 is space debris in HEO originally from a launch on Wed, 17 Oct 2018 UTC launched from the Air Force Eastern Test Range (AFETR). Debris objects in space refer to the collection of defunct objects orbiting the Earth. Examples of debris include non-operational satellites, rocket bodies, and fragments generated from explosions, collisions, or faulty payload assembly.

Loading next visibility...
Identifier
46601, 2018-079BZ
Orbit
HEO
Country
Flag of USUS
Related business
Flag of USUnited Launch Alliance/Lockheed Martin (US)
Manufacturer
ULA Decatur
Mission
Spacecraft
Bus & Motor
Unknown
Mass
Unknown
Launch date (UTC)
2018-10-17 (7 years ago)
Launch vehicle
Unknown
Launch site
Air Force Eastern Test Range (AFETR)
Object type
Payload
Rocket body
Debris
Shape & HBR
Unknown
Radar Cross Section
RCS unknown

Expand to show TLE details & history
Last TLE update: 6 days ago

TLE from 6 days ago
0 ATLAS 5 CENTAUR DEB
1 46601U 18079BZ  25255.74663020 -.00000157  00000-0  00000-0 0  9993
2 46601  12.6824  60.0145 4415549 271.5650  40.0300  1.85704488 36344
Epoch: 2025-09-12T17:55Z
TLE epoch observation values (Epoch: 2025-09-12T17:55:08.849Z)
Latitude
0.00001°
Longitude
159.29279°
Altitude
15,839.46 km
Speed
4.65 km/s
True Right ascension
04h 00m 16s
True Declination
0° 00' 00"
Sunlit
Object was in daylight at epoch
Visualization orbit readout
Latitude
Unknown
Longitude
Unknown
Altitude
Unknown
Speed
Unknown
Apparent Right ascension
Unknown
Apparent Declination
Unknown
Sunlit
N/A
Visualization observer readout
Local Sidereal Time
16:23:54
Azimuth
Unknown
Elevation
Unknown
Doppler factor
Unknown
Orbital elements
Apogee altitude
33,929.109 km
Perigee altitude
9,236.519 km
Semi-major axis
27,960.951 km
Eccentricity
0.44155
Inclination
12.6824°
RAAN
60.0145°
Arg. of periapsis
271.565°
True anomaly
88.50501°
Mean anomaly
40.03°
Eccentric anomaly
62.46318°
Mean motion
0.46421 °/min
Orbital period
775.51 mins
BSTAR
0
Loading maneuver chart data...
Computing Atmospheric mass density...

Documentation

Showing up to 5 results
|